When you browse on this site, cookies collect data to enhance your experience and personalize the content and advertising you see.
Visit our Privacy Policy to learn more. By continuing to use the site, you agree to this use of cookies and data.
  • In Latvia
  • List of Countries
  • For 7 days
  • Water Temperature
  • Satellite Maps
  • Weather Map
  • Weather Widgets
  • user-avatar
    Login

    Hourly Weather Prutz

    Today, 21 July, Sunday

    Time Temperature Precipitation Wind Pressure Humidity
    00:00 +14°C° 0.1 mm 1 mps 637 mmHg 85%
    01:00 +14°C° 0 mm 2 mps 638 mmHg 83%
    02:00 +14°C° 0 mm 1 mps 637 mmHg 83%
    03:00 +14°C° 0 mm 1 mps 637 mmHg 83%
    04:00 +13°C° 0 mm 1 mps 637 mmHg 83%
    05:00 +14°C° 0.3 mm 1 mps 637 mmHg 83%
    06:00 +15°C° 0.3 mm 1 mps 638 mmHg 84%
    07:00 +16°C° 0 mm 1 mps 639 mmHg 84%
    08:00 +16°C° 0.8 mm 1 mps 639 mmHg 86%
    09:00 +16°C° 0.8 mm 1 mps 639 mmHg 88%
    10:00 +16°C° 0.8 mm 1 mps 639 mmHg 90%
    11:00 +17°C° 0.3 mm 2 mps 640 mmHg 82%
    12:00 +19°C° 0.3 mm 2 mps 640 mmHg 74%
    13:00 +22°C° 0 mm 1 mps 641 mmHg 64%
    14:00 +21°C° 0.3 mm 2 mps 641 mmHg 63%
    15:00 +21°C° 0.3 mm 2 mps 641 mmHg 61%
    16:00 +21°C° 0.3 mm 2 mps 641 mmHg 60%
    17:00 +20°C° 0.1 mm 2 mps 641 mmHg 65%
    18:00 +19°C° 0.1 mm 2 mps 641 mmHg 70%
    19:00 +19°C° 0.1 mm 1 mps 640 mmHg 74%
    20:00 +16°C° 0 mm 1 mps 640 mmHg 80%
    21:00 +14°C° 0 mm 1 mps 640 mmHg 85%
    22:00 +11°C° 0 mm 0 mps 639 mmHg 90%
    23:00 +11°C° 0 mm 0 mps 640 mmHg 90%

    Tomorrow, 22 July, Monday

    Time Temperature Precipitation Wind Pressure Humidity
    00:00 +11°C° 0 mm 0 mps 640 mmHg 89%
    01:00 +10°C° 0 mm 0 mps 640 mmHg 89%
    02:00 +10°C° 0 mm 0 mps 639 mmHg 87%
    03:00 +10°C° 0 mm 0 mps 639 mmHg 86%
    04:00 +11°C° 0 mm 1 mps 639 mmHg 84%
    05:00 +13°C° 0 mm 1 mps 640 mmHg 78%
    06:00 +14°C° 0 mm 0 mps 641 mmHg 72%
    07:00 +16°C° 0 mm 0 mps 642 mmHg 66%
    08:00 +20°C° 0 mm 1 mps 642 mmHg 60%
    09:00 +21°C° 0 mm 1 mps 643 mmHg 53%
    10:00 +23°C° 0 mm 1 mps 643 mmHg 46%
    11:00 +24°C° 0 mm 1 mps 643 mmHg 42%
    12:00 +25°C° 0 mm 1 mps 643 mmHg 39%
    13:00 +26°C° 0 mm 2 mps 644 mmHg 35%
    14:00 +26°C° 0 mm 2 mps 643 mmHg 37%
    15:00 +26°C° 0 mm 2 mps 643 mmHg 39%
    16:00 +26°C° 0 mm 3 mps 643 mmHg 41%
    17:00 +24°C° 0 mm 2 mps 643 mmHg 51%
    18:00 +21°C° 0 mm 2 mps 642 mmHg 62%
    19:00 +20°C° 0 mm 2 mps 641 mmHg 73%
    20:00 +19°C° 0 mm 1 mps 641 mmHg 79%
    21:00 +16°C° 0 mm 1 mps 641 mmHg 86%
    22:00 +13°C° 0 mm 0 mps 640 mmHg 92%
    23:00 +13°C° 0 mm 0 mps 640 mmHg 92%

    Day after tomorrow, 23 July, Tuesday

    Time Temperature Precipitation Wind Pressure Humidity
    00:00 +12°C° 0 mm 0 mps 640 mmHg 92%
    01:00 +12°C° 0 mm 0 mps 639 mmHg 91%
    02:00 +12°C° 0 mm 0 mps 639 mmHg 90%
    03:00 +11°C° 0 mm 0 mps 639 mmHg 89%
    04:00 +11°C° 0 mm 0 mps 639 mmHg 88%
    05:00 +13°C° 0 mm 0 mps 639 mmHg 80%
    06:00 +15°C° 0 mm 0 mps 640 mmHg 72%
    07:00 +18°C° 0 mm 0 mps 641 mmHg 63%
    08:00 +20°C° 0 mm 0 mps 641 mmHg 55%
    09:00 +24°C° 0 mm 1 mps 642 mmHg 46%
    10:00 +25°C° 0 mm 1 mps 643 mmHg 37%
    11:00 +26°C° 0 mm 1 mps 643 mmHg 35%
    12:00 +27°C° 0 mm 1 mps 643 mmHg 33%
    13:00 +28°C° 0 mm 2 mps 642 mmHg 31%
    14:00 +28°C° 0 mm 2 mps 642 mmHg 33%
    15:00 +28°C° 0 mm 2 mps 642 mmHg 34%
    16:00 +28°C° 0 mm 2 mps 642 mmHg 36%
    17:00 +26°C° 0 mm 2 mps 641 mmHg 47%
    18:00 +25°C° 0 mm 2 mps 641 mmHg 58%
    19:00 +23°C° 0 mm 1 mps 640 mmHg 68%
    20:00 +21°C° 0 mm 1 mps 640 mmHg 75%
    21:00 +19°C° 0 mm 1 mps 639 mmHg 82%
    22:00 +15°C° 0 mm 0 mps 639 mmHg 89%
    23:00 +16°C° 0 mm 1 mps 638 mmHg 88%

    24 July, Wednesday

    Time Temperature Precipitation Wind Pressure Humidity
    00:00 +16°C° 0 mm 1 mps 638 mmHg 87%
    01:00 +16°C° 0 mm 1 mps 638 mmHg 86%
    02:00 +15°C° 0 mm 1 mps 638 mmHg 85%
    03:00 +15°C° 0 mm 1 mps 638 mmHg 85%
    04:00 +15°C° 0 mm 1 mps 637 mmHg 85%
    05:00 +18°C° 0 mm 1 mps 638 mmHg 80%
    06:00 +20°C° 0 mm 1 mps 639 mmHg 74%
    07:00 +20°C° 0 mm 0 mps 640 mmHg 69%
    08:00 +23°C° 0 mm 1 mps 640 mmHg 61%
    09:00 +25°C° 0 mm 1 mps 641 mmHg 54%
    10:00 +27°C° 0 mm 1 mps 641 mmHg 46%
    11:00 +28°C° 0 mm 1 mps 641 mmHg 43%
    12:00 +29°C° 0 mm 2 mps 641 mmHg 40%
    13:00 +29°C° 0 mm 2 mps 641 mmHg 36%
    14:00 +29°C° 0.1 mm 2 mps 641 mmHg 39%
    15:00 +29°C° 0.1 mm 2 mps 641 mmHg 41%
    16:00 +28°C° 0.1 mm 2 mps 640 mmHg 43%
    17:00 +26°C° 0.3 mm 2 mps 640 mmHg 54%
    18:00 +25°C° 0.3 mm 2 mps 639 mmHg 66%
    19:00 +23°C° 0.3 mm 1 mps 639 mmHg 77%
    20:00 +22°C° 0.7 mm 1 mps 639 mmHg 80%
    21:00 +21°C° 0.7 mm 1 mps 639 mmHg 83%
    22:00 +17°C° 0.7 mm 0 mps 639 mmHg 86%
    23:00 +17°C° 0.5 mm 0 mps 638 mmHg 87%

    25 July, Thursday

    Time Temperature Precipitation Wind Pressure Humidity
    00:00 +17°C° 0.5 mm 0 mps 638 mmHg 87%
    01:00 +19°C° 0.5 mm 1 mps 638 mmHg 88%
    02:00 +18°C° 0.2 mm 1 mps 638 mmHg 88%
    03:00 +18°C° 0.2 mm 1 mps 637 mmHg 87%
    04:00 +16°C° 0.2 mm 1 mps 637 mmHg 87%
    05:00 +19°C° 0 mm 1 mps 638 mmHg 83%
    06:00 +20°C° 0 mm 1 mps 638 mmHg 79%
    07:00 +22°C° 0 mm 1 mps 639 mmHg 75%
    08:00 +24°C° 0.2 mm 1 mps 639 mmHg 67%
    09:00 +26°C° 0.2 mm 1 mps 640 mmHg 59%
    10:00 +27°C° 0.2 mm 1 mps 640 mmHg 52%
    11:00 +28°C° 0.9 mm 1 mps 640 mmHg 49%
    12:00 +29°C° 0.9 mm 1 mps 640 mmHg 47%
    13:00 +29°C° 0.9 mm 1 mps 640 mmHg 45%
    14:00 +28°C° 1 mm 1 mps 639 mmHg 52%
    15:00 +26°C° 1 mm 1 mps 639 mmHg 59%
    16:00 +25°C° 1 mm 1 mps 638 mmHg 66%
    17:00 +24°C° 2.3 mm 1 mps 637 mmHg 72%
    18:00 +21°C° 2.3 mm 2 mps 637 mmHg 79%
    19:00 +19°C° 2.3 mm 2 mps 636 mmHg 86%
    20:00 +19°C° 0.7 mm 2 mps 636 mmHg 85%
    21:00 +19°C° 0.7 mm 2 mps 636 mmHg 83%
    22:00 +18°C° 0.7 mm 2 mps 636 mmHg 82%
    23:00 +18°C° 0.1 mm 2 mps 636 mmHg 81%

    26 July, Friday

    Time Temperature Precipitation Wind Pressure Humidity
    00:00 +18°C° 0.1 mm 2 mps 636 mmHg 81%
    01:00 +18°C° 0.1 mm 2 mps 636 mmHg 81%
    02:00 +17°C° 0.1 mm 2 mps 636 mmHg 82%
    03:00 +17°C° 0.1 mm 2 mps 635 mmHg 84%
    04:00 +16°C° 0.1 mm 2 mps 635 mmHg 85%
    05:00 +17°C° 0.1 mm 2 mps 635 mmHg 83%
    06:00 +19°C° 0.1 mm 2 mps 636 mmHg 81%
    07:00 +20°C° 0.1 mm 2 mps 636 mmHg 78%
    08:00 +22°C° 0.8 mm 1 mps 636 mmHg 73%
    09:00 +24°C° 0.8 mm 1 mps 637 mmHg 68%
    10:00 +25°C° 0.8 mm 1 mps 637 mmHg 62%
    11:00 +26°C° 1.7 mm 1 mps 637 mmHg 60%
    12:00 +26°C° 1.7 mm 1 mps 637 mmHg 59%
    13:00 +26°C° 1.7 mm 1 mps 637 mmHg 57%
    14:00 +26°C° 2 mm 1 mps 636 mmHg 61%
    15:00 +25°C° 2 mm 2 mps 636 mmHg 64%
    16:00 +24°C° 2 mm 2 mps 636 mmHg 68%
    17:00 +23°C° 2.2 mm 2 mps 635 mmHg 74%
    18:00 +22°C° 2.2 mm 1 mps 635 mmHg 80%
    19:00 +20°C° 2.2 mm 1 mps 635 mmHg 87%
    20:00 +19°C° 1.4 mm 1 mps 635 mmHg 88%
    21:00 +18°C° 1.4 mm 1 mps 634 mmHg 90%
    22:00 +15°C° 1.4 mm 0 mps 634 mmHg 91%
    23:00 +15°C° 0 mm 0 mps 634 mmHg 91%
    Show more